CAPE
0 0 0 0 0 0 0 0 0 0 0 0 0 0 0 0 0 0 0 0 0 0 0 0 1 0 0 0 0 0 0 0 0 0 17 33 64 98 126 84 15 45 129 150 141 150 174 32 0
0 0 0 0 0 0 0 0 0 0 0 0 0 0 0 0 0 0 0 0 0 0 0 0 0 0 0 0 0 0 0 0 0 0 0 22 61 142 200 179 85 40 114 186 196 210 148 5 0
0 0 0 0 0 0 0 0 0 0 0 0 0 0 0 0 0 0 0 0 0 0 0 0 0 0 0 0 0 0 0 0 0 0 0 3 66 96 190 237 153 55 67 168 260 303 86 0 0
0 0 0 0 0 0 0 0 0 0 0 0 0 0 0 0 0 0 0 0 0 0 0 0 2 10 20 0 0 0 0 0 0 0 0 0 55 123 160 137 131 105 35 77 181 204 45 0 0
0 0 0 0 0 0 0 0 0 0 0 0 0 0 0 0 0 0 0 0 0 0 0 0 0 9 53 62 1 0 0 0 0 0 0 0 19 106 148 147 118 109 99 58 107 156 54 0 0
0 0 0 0 0 0 0 0 0 0 0 0 0 0 0 0 0 0 0 0 0 0 0 0 32 57 96 131 105 16 0 0 0 0 0 0 0 31 115 128 150 133 121 81 65 90 71 0 0
0 0 0 0 0 0 0 0 0 0 0 0 0 0 0 0 0 0 0 0 0 0 0 0 90 235 267 281 283 225 121 9 3 0 0 0 0 0 39 101 112 128 104 90 117 120 62 7 0
0 0 0 0 0 0 0 0 0 0 0 0 0 0 0 0 0 0 0 0 0 0 0 0 16 252 402 447 500 430 362 262 65 45 55 47 27 38 47 68 101 68 71 39 67 139 142 50 5
0 0 0 0 0 0 0 0 0 0 0 0 0 0 0 0 0 0 0 0 0 0 0 0 0 0 161 357 501 589 591 492 415 294 222 165 169 159 166 139 95 101 111 69 34 55 89 134 93
0 0 0 0 0 0 0 0 0 0 0 0 0 0 0 0 0 0 0 0 0 8 58 108 57 0 1 128 290 495 687 697 669 620 515 428 362 298 266 220 181 116 112 95 59 76 119 163 170
0 0 0 0 0 0 0 0 0 0 0 0 0 0 0 0 0 0 8 23 37 30 48 160 258 206 66 54 38 96 280 435 530 724 772 697 620 443 364 324 311 291 223 155 127 100 120 120 113
0 0 0 0 0 0 0 0 0 0 0 0 0 0 0 0 0 0 0 0 3 0 14 22 88 109 86 66 59 25 8 27 50 183 328 534 588 489 345 274 271 250 256 100 53 13 22 30 49
0 0 0 0 0 0 0 0 0 0 0 0 0 0 0 0 0 0 0 0 0 0 0 0 0 0 0 17 71 128 130 28 18 13 4 1 41 121 191 185 165 165 136 113 64 17 0 0 3
0 0 0 0 0 0 0 0 0 0 0 0 0 0 0 0 0 0 0 0 0 0 0 8 0 0 0 0 0 0 0 3 78 132 77 24 5 0 36 61 85 78 72 64 37 4 0 0 0
0 0 0 0 0 0 0 0 0 0 0 0 0 0 0 0 0 0 0 0 0 0 0 0 0 0 0 0 0 0 0 0 0 1 206 117 72 30 9 34 34 31 26 4 2 0 0 0 0
0 0 0 0 0 0 0 0 0 0 0 0 0 0 0 0 0 0 0 0 0 0 0 0 0 0 0 0 0 0 0 0 0 0 0 0 97 127 139 76 48 39 70 7 1 12 2 1 0
0 0 0 0 0 0 0 0 0 0 0 0 0 0 0 0 0 0 0 0 0 0 0 0 0 0 0 0 0 0 0 0 0 0 0 0 0 0 1 3 119 132 88 92 53 21 12 0 0
0 0 0 0 0 0 0 0 0 0 0 0 0 0 0 0 0 0 0 0 0 0 0 0 0 0 0 0 0 0 0 0 0 0 0 0 0 1 1 1 49 93 183 51 208 54 20 11 14
0 0 0 0 0 0 0 0 0 0 0 0 0 0 0 0 0 0 0 0 0 0 0 0 0 0 0 0 0 0 0 0 0 0 0 0 1 0 7 4 1 3 3 101 274 215 204 107 31
0 0 0 0 0 0 0 0 0 0 0 0 0 0 0 0 0 0 0 0 0 0 0 0 0 0 0 0 0 0 0 0 0 1 1 2 0 1 2 3 3 4 3 3 39 431 313 205 209
0 0 0 0 0 0 0 0 0 0 0 0 0 0 0 0 0 0 0 0 0 0 0 0 0 0 0 0 0 0 0 0 0 0 3 5 7 3 2 3 2 3 3 2 3 4 333 614 481
0 0 0 0 0 0 0 0 0 0 0 0 0 0 0 0 0 0 0 0 0 0 0 0 0 0 0 0 0 0 0 0 1 0 0 2 1 0 3 2 2 2 4 2 4 2 3 37 712
0 0 0 0 0 0 0 0 0 0 0 0 0 0 0 0 0 0 0 0 0 0 0 0 0 0 0 0 0 0 0 0 1 0 0 1 0 2 1 3 2 3 4 3 3 3 1 1 98
0 0 0 0 0 0 0 0 0 0 0 0 0 0 0 0 0 0 0 0 0 0 0 0 0 0 0 0 0 0 0 1 0 0 0 0 0 2 2 2 2 2 3 3 4 4 5 6 6
0 0 0 0 0 0 0 0 0 0 0 0 0 0 0 0 0 0 0 0 0 0 0 0 0 0 0 0 0 0 0 0 1 3 3 3 3 3 1 2 3 3 3 3 3 5 6 7 6
0 0 0 0 0 0 0 0 0 0 0 0 0 0 0 0 0 0 0 0 0 0 0 0 0 0 0 1 0 2 2 2 2 2 2 3 2 2 3 3 1 3 2 3 3 3 4 6 8
0 0 0 0 0 0 0 0 0 0 0 0 0 0 0 0 0 0 0 0 0 0 0 0 0 0 0 0 0 0 1 0 3 2 3 3 3 4 4 3 2 2 3 2 3 2 4 3 5
0 0 0 0 0 0 0 0 0 0 0 0 0 0 0 0 0 0 0 0 0 0 0 0 0 0 0 0 1 2 2 1 2 2 3 2 2 3 3 2 1 2 2 2 3 2 2 3 4
0 0 0 0 0 0 0 0 0 0 0 0 0 0 0 0 0 0 0 0 0 0 0 0 0 0 0 3 2 3 1 1 0 2 2 2 2 2 3 2 1 0 2 4 2 1 2 4 4
0 0 0 0 0 0 0 0 0 0 0 0 0 0 0 0 0 0 0 4 5 0 0 0 0 0 0 2 2 1 2 0 0 2 1 1 1 1 2 1 1 2 2 3 2 2 1 2 2
CIN
0 0 0 0 0 0 0 0 0 0 0 0 0 0 0 0 0 0 0 0 0 0 0 0 -133 -189 0 0 0 0 0 0 0 0 -412 -380 -352 -327 -325 -371 -455 -431 -351 -345 -339 -357 -345 -493 0
0 0 0 0 0 0 0 0 0 0 0 0 0 0 0 0 0 0 0 0 0 0 0 0 0 0 0 0 0 0 0 0 0 0 0 -445 -361 -282 -252 -283 -376 -443 -369 -325 -328 -311 -368 -333 0
0 0 0 0 0 0 0 0 0 0 0 0 0 0 0 0 0 0 0 0 0 0 0 0 0 0 -69 0 0 0 0 0 0 0 0 -207 -409 -374 -304 -273 -321 -429 -427 -330 -278 -264 -403 0 0
0 0 0 0 0 0 0 0 0 0 0 0 0 0 0 0 0 0 0 0 0 0 0 0 -615 -549 -497 0 0 0 0 0 0 0 0 0 -449 -390 -361 -373 -384 -396 -452 -407 -313 -309 -443 0 0
0 0 0 0 0 0 0 0 0 0 0 0 0 0 0 0 0 0 0 0 0 0 0 0 0 -558 -502 -483 -84 0 0 0 0 0 0 0 -452 -427 -401 -403 -416 -415 -413 -436 -378 -331 -439 0 0
0 0 0 0 0 0 0 0 0 0 0 0 0 0 0 0 0 0 0 0 0 0 0 0 -638 -566 -517 -494 -495 -273 0 0 0 0 0 0 0 -515 -444 -437 -415 -425 -426 -434 -435 -400 -420 0 0
0 0 0 0 0 0 0 0 0 0 0 0 0 0 0 0 0 0 0 0 0 0 0 0 -580 -486 -463 -453 -420 -433 -476 -428 -445 0 0 0 0 0 -484 -432 -430 -419 -435 -448 -415 -392 -434 -545 0
0 0 0 0 0 0 0 0 0 0 0 0 0 0 0 0 0 0 0 0 0 0 0 0 -145 -464 -397 -390 -331 -326 -336 -389 -463 -477 -470 -462 -477 -453 -445 -423 -411 -422 -425 -463 -454 -398 -389 -466 -588
0 0 0 0 0 0 0 0 0 0 0 0 0 0 0 0 0 0 0 0 0 0 0 0 0 0 -490 -363 -323 -277 -259 -257 -277 -314 -325 -350 -374 -389 -378 -388 -413 -396 -378 -400 -452 -438 -423 -385 -434
0 0 0 0 0 0 0 0 0 0 0 0 0 0 0 0 0 0 0 0 0 -208 -383 -415 -263 0 -212 -514 -410 -300 -219 -216 -195 -191 -207 -218 -242 -281 -315 -350 -367 -403 -401 -406 -425 -403 -362 -325 -358
0 0 0 0 0 0 0 0 0 0 0 0 0 0 0 0 0 0 -396 -420 -397 -443 -447 -398 -391 -457 -541 -556 -583 -547 -395 -285 -175 -123 -105 -114 -130 -180 -205 -240 -288 -324 -355 -397 -393 -402 -370 -381 -377
0 0 0 0 0 0 0 0 0 0 0 0 0 0 0 0 0 0 0 0 -292 0 -545 -455 -469 -499 -522 -572 -585 -599 -447 -521 -421 -273 -145 -75 -88 -96 -142 -181 -217 -250 -289 -414 -468 -440 -483 -446 -437
0 0 0 0 0 0 0 0 0 0 0 0 0 0 0 0 0 0 0 0 0 0 0 0 0 0 0 -351 -485 -368 -316 -388 -389 -384 -174 -66 -145 -159 -94 -122 -139 -205 -236 -301 -397 -491 0 0 -198
0 0 0 0 0 0 0 0 0 0 0 0 0 0 0 0 0 0 0 0 0 0 0 -548 0 0 0 0 0 0 0 -140 -277 -219 -266 -170 -148 0 -143 -99 -119 -170 -197 -224 -272 -162 0 0 0
0 0 0 0 0 0 0 0 0 0 0 0 0 0 0 0 0 0 0 0 0 0 0 0 0 0 0 0 0 0 0 0 0 -14 -114 -164 -190 -157 -112 -78 -89 -134 -218 -269 -256 0 0 0 0
0 0 0 0 0 0 0 0 0 0 0 0 0 0 0 0 0 0 0 0 0 0 0 0 0 0 0 0 0 0 0 0 0 0 0 0 -102 -60 -47 -13 -77 -78 -60 -175 -164 -267 -250 -233 -23
0 0 0 0 0 0 0 0 0 0 0 0 0 0 0 0 0 0 0 0 0 0 0 0 0 0 0 0 0 0 0 0 0 0 0 0 0 0 0 -84 -3 -65 -12 -28 -81 -153 -179 0 0
0 0 0 0 0 0 0 0 0 0 0 0 0 0 0 0 0 0 0 0 0 0 0 0 0 0 0 0 0 0 0 0 0 0 0 0 0 0 -1 0 -6 -21 -10 -24 -11 -30 -87 -138 -194
0 0 0 0 0 0 0 0 0 0 0 0 0 0 0 0 0 0 0 0 0 0 0 0 0 0 0 0 0 0 0 0 0 0 0 0 0 -1 0 0 0 0 0 -70 -8 -27 -46 -68 -94
0 0 0 0 0 0 0 0 0 0 0 0 0 0 0 0 0 0 0 0 0 0 0 0 0 0 0 0 0 0 0 0 0 -1 -1 0 0 0 0 0 0 0 0 0 -134 -3 -9 -26 -50
0 0 0 0 0 0 0 0 0 0 0 0 0 0 0 0 0 0 0 0 0 0 0 0 0 0 0 0 0 0 0 0 0 0 -1 0 0 0 0 0 0 0 0 0 0 -121 -36 0 -11
0 0 0 0 0 0 0 0 0 0 0 0 0 0 0 0 0 0 0 0 0 0 0 0 0 0 0 0 0 0 0 0 -1 0 0 0 0 0 0 0 0 0 0 0 0 0 0 -72 0
0 0 0 0 0 0 0 0 0 0 0 0 0 0 0 0 0 0 0 0 0 0 0 0 0 0 0 0 0 0 0 0 -1 0 0 0 0 0 0 0 0 0 0 0 0 0 0 0 -70
0 0 0 0 0 0 0 0 0 0 0 0 0 0 0 0 0 0 0 0 0 0 0 0 0 0 0 0 0 0 0 -1 0 0 0 0 0 0 0 0 0 0 0 0 0 0 0 0 0
0 0 0 0 0 0 0 0 0 0 0 0 0 0 0 0 0 0 0 0 0 0 0 0 0 0 0 0 0 0 0 -3 -2 0 0 0 0 0 0 0 0 0 0 0 0 0 0 0 0
0 0 0 0 0 0 0 0 0 0 0 0 0 0 0 0 0 0 0 0 0 0 0 0 0 0 0 0 0 0 0 0 0 0 0 0 0 0 0 0 0 0 0 0 0 0 0 0 0
0 0 0 0 0 0 0 0 0 0 0 0 0 0 0 0 0 0 0 0 0 0 0 0 0 0 0 0 0 0 0 0 0 0 0 0 0 0 0 0 0 0 0 0 0 0 0 0 0
0 0 0 0 0 0 0 0 0 0 0 0 0 0 0 0 0 0 0 0 0 0 0 0 0 0 0 0 -1 0 0 0 0 0 0 0 0 0 0 0 0 0 0 0 0 0 0 0 0
0 0 0 0 0 0 0 0 0 0 0 0 0 0 0 0 0 0 0 0 0 0 0 0 0 0 0 0 0 0 0 0 0 0 0 0 0 0 0 0 0 0 0 0 0 0 0 0 0
0 0 0 0 0 0 0 0 0 0 0 0 0 0 0 0 0 0 0 -29 -63 0 0 0 0 0 0 0 0 0 0 0 0 0 0 0 0 0 0 0 0 0 0 0 0 0 0 0 0
Wind_Speed
11 10 16 18 17 19 19 16 14 15 14 17 18 19 21 22 23 23 15 18 20 19 19 19 18 17 16 15 14 14 13 13 12 11 10 10 10 10 11 11 10 10 11 11 11 11 12 12 13
11 15 16 18 19 17 17 14 14 14 15 19 19 19 20 21 19 20 21 18 18 20 19 18 17 16 14 13 13 12 12 11 11 10 9 9 7 7 7 8 8 8 8 7 7 8 8 9 9
12 17 17 19 18 16 15 16 14 22 22 18 17 17 17 18 17 17 17 15 17 18 18 18 17 15 14 13 12 11 11 10 9 9 7 6 6 5 5 5 6 6 5 5 5 5 5 5 6
18 18 20 21 18 18 18 15 19 21 23 23 19 18 16 16 16 17 17 15 15 15 15 15 15 15 14 13 11 10 9 8 8 8 7 5 4 3 2 2 3 4 4 3 4 4 3 3 3
19 19 22 20 21 19 25 25 25 27 24 25 17 17 17 17 17 17 16 14 14 13 12 11 13 13 13 12 11 10 9 7 7 6 6 6 5 4 2 2 1 2 2 2 1 1 2 2 1
18 19 24 26 22 23 24 27 28 28 27 24 18 18 18 16 16 16 14 12 10 9 8 7 9 10 10 10 10 9 8 6 6 6 6 6 6 6 5 4 4 3 3 3 2 2 1 1 2
18 18 20 22 21 22 26 27 29 26 29 29 19 18 17 16 16 14 13 12 10 10 9 8 6 3 2 3 3 4 4 5 5 4 5 6 7 8 8 7 7 7 6 5 5 5 4 4 3
16 16 18 19 20 20 25 26 25 27 26 25 21 19 20 19 19 17 16 15 16 19 19 18 17 16 12 11 13 11 9 7 6 6 7 7 8 9 10 11 11 10 10 10 9 8 7 7 6
15 16 19 19 20 19 22 25 25 21 24 24 23 23 23 21 19 19 17 18 18 19 19 20 20 19 16 15 15 14 18 16 18 17 16 14 14 13 13 15 17 17 16 15 14 13 11 11 11
17 15 17 15 17 21 20 24 25 24 25 22 22 25 25 24 23 24 25 23 23 20 22 23 17 14 15 18 21 21 21 24 25 28 28 29 27 26 21 18 19 20 19 20 20 21 20 19 20
17 16 16 18 21 23 21 24 23 24 27 25 24 21 23 25 26 27 28 28 27 26 28 33 32 16 16 17 22 25 24 26 33 31 36 34 36 36 36 34 29 26 26 27 28 29 29 26 26
17 16 19 22 23 26 26 18 20 25 31 25 18 19 21 24 25 26 28 28 28 30 31 32 33 29 26 24 24 29 32 32 30 33 36 38 41 41 41 42 41 40 36 33 31 32 31 34 31
18 21 25 27 26 29 25 18 18 27 30 23 20 21 23 24 25 27 28 28 29 30 31 32 32 32 31 30 31 33 36 36 37 34 30 33 39 43 42 44 45 46 45 44 40 35 36 36 36
19 22 21 22 26 28 26 21 18 27 25 22 22 22 24 25 26 27 29 30 30 30 31 32 34 33 33 33 33 35 37 37 40 38 35 31 33 38 44 48 48 47 47 49 50 48 41 40 39
20 20 19 25 26 24 25 20 19 27 23 20 21 22 24 26 27 29 29 30 30 30 30 31 33 34 35 35 36 37 38 38 39 40 38 34 33 34 40 44 51 52 50 48 48 49 50 49 40
20 21 22 22 29 24 25 23 19 31 20 19 20 23 25 26 27 28 28 29 29 31 32 32 34 36 36 37 37 38 39 40 41 40 39 40 37 35 37 34 42 58 55 52 50 50 48 49 49
22 23 24 23 26 28 28 24 32 28 17 18 21 23 24 26 28 28 29 30 30 31 33 34 35 37 38 40 41 41 41 42 42 42 41 40 39 39 39 41 34 36 50 49 51 50 48 49 48
24 24 23 26 25 29 29 29 28 24 22 22 22 24 25 27 28 29 30 30 31 32 33 35 36 39 41 42 43 43 44 44 44 44 43 42 42 41 41 41 41 39 41 40 50 49 47 47 47
21 22 24 21 26 22 24 26 25 25 25 24 25 26 27 27 26 29 29 31 34 36 38 39 40 42 44 47 51 52 53 50 47 45 45 46 43 44 42 42 41 41 41 41 29 47 49 47 42
23 23 23 18 25 21 22 24 24 24 24 25 27 30 31 30 30 31 34 35 37 39 40 40 42 44 47 49 51 49 50 48 47 48 45 47 46 46 44 44 45 43 44 44 43 41 38 39 36
20 22 21 18 22 17 16 24 23 23 23 26 29 31 32 33 34 36 38 38 39 42 42 42 45 46 47 50 50 51 49 50 49 50 49 48 47 48 46 47 47 46 44 45 45 45 44 45 41
19 21 20 20 18 17 19 18 20 21 23 27 29 33 33 34 36 39 41 41 41 39 38 41 43 46 48 50 51 53 54 55 51 50 50 48 47 47 47 47 45 44 43 43 44 44 47 49 50
18 25 21 18 16 16 22 20 18 21 25 28 32 34 34 35 38 41 41 38 36 36 38 40 43 45 47 47 48 50 52 51 51 50 51 49 46 45 44 45 44 43 41 41 42 43 43 44 49
24 23 21 18 16 20 20 22 24 23 24 29 34 37 36 39 41 41 38 34 35 35 38 40 43 45 46 46 48 50 52 53 53 53 52 50 47 45 43 43 40 40 40 39 37 37 38 39 42
25 24 22 20 22 23 20 28 23 18 24 31 38 43 44 44 45 47 44 37 36 39 41 43 45 47 46 47 48 49 49 49 50 51 50 49 47 45 43 41 39 38 37 36 34 33 33 35 35
21 21 21 27 26 27 30 24 20 18 26 32 36 40 45 48 47 46 43 39 38 40 42 44 46 46 46 46 46 46 47 48 48 48 46 45 44 42 40 38 37 36 34 32 30 29 29 30 31
20 22 21 23 25 28 27 24 13 25 31 35 38 42 45 48 48 50 46 41 38 40 41 44 45 45 45 44 43 46 47 47 47 45 42 40 40 39 37 35 32 33 31 29 28 27 28 27 28
21 21 23 25 28 31 29 27 27 32 35 38 42 45 48 47 47 50 46 40 35 35 38 40 41 43 43 41 41 43 44 43 43 42 41 40 38 37 34 31 30 31 29 27 26 26 26 25 26
23 23 23 23 25 31 35 30 27 31 35 41 43 47 49 52 52 51 48 41 37 36 39 37 39 40 39 39 40 41 42 41 40 40 39 38 36 34 31 30 30 29 27 25 24 24 26 26 26
19 22 23 26 30 27 30 34 23 30 36 41 45 49 51 52 53 51 47 42 40 40 38 36 37 37 36 38 39 40 39 39 39 39 38 37 35 33 26 27 27 26 25 26 25 25 26 26 27
Wind_Direction
224 218 118 109 118 111 99 97 95 88 98 93 84 71 61 56 54 54 80 101 85 105 122 128 128 129 122 117 114 109 106 104 101 93 89 89 89 89 89 90 87 85 87 86 82 83 81 80 76
221 121 108 105 108 105 96 94 89 95 84 64 64 61 50 53 63 58 59 96 91 99 113 123 128 128 127 125 123 119 117 115 113 110 104 97 87 80 83 86 86 81 78 75 72 70 70 73 67
140 88 98 87 86 91 88 75 87 58 54 61 64 59 56 56 60 57 58 86 81 96 107 117 126 130 132 133 133 133 132 129 128 127 120 111 102 91 82 84 86 82 77 74 70 58 49 47 51
76 76 69 57 75 77 66 70 57 52 42 42 58 47 48 45 56 55 50 72 75 91 105 118 126 128 133 137 141 145 148 147 146 146 146 142 135 122 105 100 103 101 98 87 85 78 60 41 35
57 64 52 71 72 69 37 34 30 20 32 26 39 38 35 35 38 43 55 69 84 96 106 113 130 135 138 138 143 152 159 166 171 175 177 176 175 179 188 194 181 155 142 129 93 85 103 106 73
53 69 41 27 49 40 30 9 4 10 12 21 27 26 24 30 36 42 55 69 78 94 103 106 130 140 146 152 155 156 160 168 182 197 205 208 208 207 212 229 241 235 218 206 215 226 229 190 169
50 56 43 37 30 23 13 358 7 16 5 4 15 20 20 19 18 32 38 42 51 37 25 27 26 36 138 156 174 182 186 188 195 214 231 235 238 238 238 241 248 253 249 241 244 245 241 241 238
50 53 36 33 22 20 12 9 15 10 7 6 12 14 10 8 10 19 18 14 6 355 349 343 337 334 333 321 315 313 305 287 265 257 257 262 264 260 262 264 261 260 263 261 256 255 248 247 248
45 37 21 21 15 16 10 6 7 14 5 9 9 4 359 7 9 6 3 0 359 358 353 344 336 330 327 320 316 308 305 303 301 298 294 289 288 283 278 277 277 274 273 272 269 265 261 263 263
27 23 19 21 15 2 5 2 0 358 360 3 4 4 8 9 6 359 356 355 355 359 356 349 341 330 327 318 316 312 306 299 297 295 294 292 291 291 288 281 278 276 273 274 275 276 277 278 281
17 16 14 8 359 355 354 350 355 358 353 354 355 6 10 14 13 14 12 9 6 2 353 346 341 345 339 329 317 311 309 303 296 297 290 291 288 286 285 284 284 281 279 278 277 277 276 277 279
2 6 360 352 351 355 348 354 1 6 358 355 23 22 21 19 17 14 10 5 7 4 1 1 0 1 352 344 332 317 308 305 304 298 294 290 286 284 282 280 279 278 279 278 277 276 276 275 276
359 352 348 350 352 355 1 9 16 2 3 26 30 24 23 23 20 17 14 11 3 1 2 1 0 359 356 352 345 335 322 316 309 305 299 293 287 284 283 281 278 276 275 275 276 276 276 275 275
356 350 353 1 0 1 8 22 17 359 7 17 21 22 24 23 22 21 16 12 8 2 358 3 3 2 0 359 358 350 344 332 324 319 308 299 292 287 283 281 280 278 276 273 272 272 275 275 275
357 359 4 2 358 2 357 3 6 356 4 16 22 25 24 22 22 20 20 18 18 14 13 9 6 0 358 357 356 354 350 346 340 331 324 316 302 298 289 280 280 276 276 276 274 272 272 272 274
1 5 354 2 360 360 358 347 352 345 4 16 25 27 28 28 28 27 25 20 17 13 8 7 3 359 356 355 354 352 350 347 344 341 338 330 320 307 301 296 283 279 274 272 272 271 272 271 270
360 352 352 354 1 356 358 354 340 342 24 33 31 32 30 27 25 21 17 15 14 11 7 3 360 355 352 350 348 348 346 343 341 340 338 334 332 324 315 312 303 299 278 275 274 269 268 269 270
350 352 354 353 359 356 359 0 4 25 47 41 36 31 29 26 18 17 15 10 7 4 1 358 355 350 347 344 340 342 343 340 337 335 334 333 329 326 323 319 317 307 292 282 271 270 270 270 270
1 357 353 2 351 10 21 22 26 33 36 33 29 23 18 19 18 14 10 4 359 356 352 350 348 345 343 339 335 331 329 329 331 331 328 329 328 325 321 320 316 312 304 300 286 274 274 275 275
355 355 358 11 354 18 25 21 20 24 31 29 20 12 10 13 10 6 1 356 353 350 349 348 345 341 339 336 333 333 331 329 327 327 326 323 322 322 320 317 313 310 302 298 294 287 281 279 280
359 0 358 1 353 17 25 11 12 24 26 20 14 12 8 4 0 357 353 351 348 347 346 346 344 342 340 338 336 334 333 330 328 326 323 322 321 318 318 315 312 309 306 298 293 290 285 280 279
355 358 353 351 356 353 357 348 3 9 7 6 5 3 3 1 357 352 349 347 346 348 350 348 346 343 342 340 338 335 332 328 329 327 326 326 324 322 317 315 312 310 305 300 296 293 285 282 279
352 337 347 350 353 355 353 347 347 359 353 354 357 357 359 358 355 350 347 347 348 349 347 347 346 345 345 344 343 339 336 332 328 327 326 325 326 326 323 317 313 311 309 303 298 295 293 288 281
339 345 349 356 358 342 345 345 338 345 353 352 352 352 354 354 352 349 347 346 347 346 345 346 345 345 344 343 342 341 338 334 330 326 325 324 324 325 324 321 318 315 310 306 303 301 298 297 291
344 347 342 342 339 338 342 338 342 0 356 354 349 348 348 349 347 345 343 342 344 344 344 344 343 343 344 344 343 342 340 340 337 334 328 324 323 323 322 321 322 317 316 310 309 307 306 305 302
344 349 344 331 332 333 334 337 345 3 358 356 355 353 352 352 350 348 347 345 344 344 344 344 345 345 346 345 345 346 345 342 339 337 335 331 326 325 323 323 326 320 320 320 317 316 314 312 313
340 340 342 337 335 334 336 346 357 353 349 350 352 351 352 353 355 354 350 346 344 345 346 347 346 346 346 346 348 347 347 349 344 343 344 342 340 334 328 327 326 322 326 327 327 327 325 325 324
333 338 335 336 332 331 334 333 332 338 340 344 345 345 346 347 348 347 345 343 343 345 345 347 348 347 349 349 352 353 353 354 350 349 348 345 344 341 331 328 331 328 327 331 332 337 339 338 339
328 329 334 335 333 329 329 332 343 342 343 342 345 344 344 344 344 343 342 340 343 345 346 348 348 349 352 352 356 359 359 1 355 354 350 347 348 344 338 331 331 335 333 336 339 341 341 341 344
335 332 333 328 327 329 329 326 346 345 346 345 344 344 344 344 344 343 344 345 345 347 349 352 352 352 353 355 360 1 6 7 2 356 354 351 347 348 327 330 342 334 337 348 345 345 345 346 345